Location: Banios
(43.0451°N, 0.2335°E)
Time: 19:00:29
(UTC+00:00)

A-11 Canister half - Pass Details

Date: 11 December 2021
Orbit: 1516 x 1684 km, 47.2° (Epoch: 23 January)

Event Time Altitude Azimuth Distance (km) Brightness Sun altitude
Rises 06:35:41 0° 257° (WSW) 4,733 11.1 -8.1°
Reaches altitude 10° 06:38:43 10° 259° (W) 3,771 10.6 -7.6°
Maximum altitude 06:48:22 77° 346° (NNW) 1,657 9.1 -6.0°
Drops below altitude 10° 06:58:24 10° 73° (ENE) 3,908 11.9 -4.3°
Sets 07:01:37 0° 75° (ENE) 4,912 12.4 -3.8°
